Change the Weather History Date:

Friday, March 2, 2012

  Actual Average Record
Temperature  
Mean Temperature 24 °F 30 °F  
Max Temperature 32 °F 42 °F 80 °F (1974)
Min Temperature 16 °F 17 °F -23 °F (2014)
Degree Days  
Heating Degree Days 41 35  
Month to date heating degree days 77 71  
Since 1 July heating degree days 4783 5436  
Cooling Degree Days 0 0  
Month to date cooling degree days 0 0  
Year to date cooling degree days 0 0  
Moisture  
Dew Point 15 °F    
Average Humidity 69    
Maximum Humidity 84    
Minimum Humidity 54    
Precipitation  
Precipitation T in 0.03 in 1.05 in (1951)
Month to date precipitation T 0.07  
Year to date precipitation 0.72 0.85  
Sea Level Pressure  
Sea Level Pressure 29.94 in    
Wind  
Wind Speed 18 mph (WNW)    
Max Wind Speed 38 mph    
Max Gust Speed 45 mph    
Visibility 10 miles    
Events Snow    
T = Trace of Precipitation, MM = Missing Value Source: NWS Daily Summary

Daily Weather History Graph

Daily Weather History Graph

Search for Another Location

Airport or City:

Trip Planner

Search our weather history database for the weather conditions in past years. The results will help you decide how hot, cold, wet, or windy it might be!

Date:

Astronomy

Mar. 02, 2012 Rise Set
Actual Time 6:20 AM MST 5:36 PM MST
Civil Twilight 5:51 AM MST 6:05 PM MST
Nautical Twilight 5:18 AM MST 6:39 PM MST
Astronomical Twilight 4:44 AM MST 7:12 PM MST
Moon 11:41 AM MST (3/2) 2:22 AM MST (3/2)
Length of Visible Light 12h 13m
Length of Day
11h 16m
Waxing Gibbous, 67% of the Moon is Illuminated
Mar 2
Waxing Gibbous
Mar 8
Full
Mar 14
Last Quarter
Mar 22
New
Mar 30
First Quarter

Hourly Weather History & Observations

Time (MST) Temp. Windchill Dew Point Humidity Pressure Visibility Wind Dir Wind Speed Gust Speed Precip Events Conditions
12:55 AM 19.9 °F 7.9 °F 15.1 °F 81% 29.81 in 10.0 mi WNW 11.5 mph - N/A   Clear
1:55 AM 19.0 °F 9.0 °F 14.0 °F 81% 29.82 in 10.0 mi West 8.1 mph - N/A   Clear
2:55 AM 21.9 °F 11.0 °F 14.0 °F 72% 29.82 in 10.0 mi West 10.4 mph - N/A   Clear
3:55 AM 21.9 °F 11.0 °F 15.1 °F 75% 29.84 in 10.0 mi WNW 10.4 mph - N/A   Clear
4:55 AM 24.1 °F 13.1 °F 16.0 °F 71% 29.87 in 10.0 mi West 11.5 mph - N/A   Partly Cloudy
5:55 AM 24.1 °F 12.5 °F 16.0 °F 71% 29.88 in 10.0 mi WNW 12.7 mph - N/A   Clear
6:55 AM 25.0 °F 12.2 °F 16.0 °F 69% 29.89 in 10.0 mi WNW 16.1 mph 24.2 mph N/A   Clear
7:55 AM 27.0 °F 11.3 °F 16.0 °F 63% 29.90 in 10.0 mi NW 27.6 mph 36.8 mph N/A   Clear
8:55 AM 28.0 °F 12.0 °F 17.1 °F 63% 29.92 in 10.0 mi WNW 31.1 mph 42.6 mph N/A   Clear
9:55 AM 28.9 °F 13.5 °F 17.1 °F 61% 29.95 in 10.0 mi WNW 29.9 mph 40.3 mph N/A   Partly Cloudy
10:55 AM 28.9 °F 14.0 °F 16.0 °F 58% 29.96 in 10.0 mi WNW 27.6 mph 39.1 mph N/A   Mostly Cloudy
11:55 AM 30.0 °F 14.7 °F 17.1 °F 59% 29.96 in 10.0 mi WNW 31.1 mph 39.1 mph N/A   Overcast
12:55 PM 30.9 °F 17.5 °F 18.0 °F 59% 29.95 in 7.0 mi NW 24.2 mph 38.0 mph 0.00 in Snow Light Snow
1:55 PM 30.9 °F 16.2 °F 18.0 °F 59% 29.96 in 10.0 mi NW 29.9 mph 38.0 mph 0.00 in   Overcast
2:55 PM 32.0 °F 18.1 °F 18.0 °F 56% 29.96 in 10.0 mi NW 27.6 mph 36.8 mph 0.00 in   Overcast
3:55 PM 30.9 °F 16.4 °F 17.1 °F 57% 29.98 in 10.0 mi NW 28.8 mph 38.0 mph N/A   Overcast
4:55 PM 28.9 °F 15.4 °F 16.0 °F 58% 29.99 in 10.0 mi NW 21.9 mph 32.2 mph N/A   Overcast
5:55 PM 26.1 °F 14.5 °F 16.0 °F 66% 30.01 in 10.0 mi NW 13.8 mph - N/A   Clear
6:55 PM 24.1 °F 13.7 °F 15.1 °F 69% 30.02 in 10.0 mi WNW 10.4 mph - N/A   Clear
7:55 PM 19.9 °F 9.3 °F 12.9 °F 74% 30.04 in 10.0 mi West 9.2 mph - N/A   Clear
8:55 PM 21.0 °F 11.4 °F 12.9 °F 71% 30.04 in 10.0 mi WNW 8.1 mph - N/A   Clear
9:55 PM 19.0 °F 7.5 °F 12.0 °F 74% 30.04 in 10.0 mi WNW 10.4 mph - N/A   Clear
10:55 PM 19.0 °F 9.0 °F 12.0 °F 74% 30.03 in 10.0 mi West 8.1 mph - N/A   Clear
11:55 PM 16.0 °F 6.3 °F 10.9 °F 81% 30.04 in 10.0 mi WSW 6.9 mph - N/A   Clear